Change the Weather History Date:

Tuesday, January 7, 2014

  Actual Average Record
Temperature  
Mean Temperature 70 °F -  
Max Temperature 76 °F 76 °F 90 °F (2015)
Min Temperature 64 °F 59 °F 55 °F (2002)
Cooling Degree Days 5    
Growing Degree Days 20 (Base 50)    
Moisture  
Dew Point 62 °F    
Average Humidity 77    
Maximum Humidity 88    
Minimum Humidity 59    
Precipitation  
Precipitation 0.08 in - - ()
Sea Level Pressure  
Sea Level Pressure 29.81 in    
Wind  
Wind Speed 17 mph ()    
Max Wind Speed 28 mph    
Max Gust Speed -    
Visibility 7.6 miles    
Events Rain    
Averages and records for this station are not official NWS values.
T = Trace of Precipitation, MM = Missing Value Source: Averaged Metar Reports

Daily Weather History Graph

Daily Weather History Graph

Search for Another Location

Airport or City:

Trip Planner

Search our weather history database for the weather conditions in past years. The results will help you decide how hot, cold, wet, or windy it might be!

Date:

Astronomy

Jan. 07, 2014 Rise Set
Actual Time 5:42 AM SAST 8:00 PM SAST
Civil Twilight 5:13 AM SAST 8:29 PM SAST
Nautical Twilight 4:38 AM SAST 9:04 PM SAST
Astronomical Twilight 4:00 AM SAST 9:43 PM SAST
Moon 12:19 PM SAST (1/7) No Moon Set
Length of Visible Light 15h 15m
Length of Day
14h 17m
Waxing Crescent, 42% of the Moon is Illuminated
Jan 7
Waxing Crescent
Jan 8
First Quarter
Jan 16
Full
Jan 24
Last Quarter
Jan 30
New

Hourly Weather History & Observations

Time (SAST) Temp. Dew Point Humidity Pressure Visibility Wind Dir Wind Speed Gust Speed Precip Events Conditions
12:00 AM 66.2 °F 62.6 °F 88% 29.83 in 6.2 mi South 16.1 mph - N/A   Mostly Cloudy
1:00 AM 66.2 °F 60.8 °F 83% 29.83 in 6.2 mi South 18.4 mph - N/A Rain Light Rain Showers
2:00 AM 65 °F 61 °F 83% 29.83 in 9 mi SSE 18.4 mph - - Rain Light Rain Showers
2:00 AM 64.4 °F 60.8 °F 88% 29.83 in 6.2 mi SSE 18.4 mph - N/A Rain Light Rain Showers
3:00 AM 66.2 °F 60.8 °F 83% 29.80 in 6.2 mi South 13.8 mph - N/A Rain Light Rain
4:00 AM 66.2 °F 60.8 °F 83% 29.80 in 6.2 mi SSE 18.4 mph - N/A Rain Light Rain
5:00 AM 65 °F 61 °F 83% 29.82 in 9 mi South 16.1 mph - - Rain Light Rain
5:00 AM 66.2 °F 60.8 °F 83% 29.80 in 6.2 mi South 15.0 mph - N/A Rain Light Rain
6:00 AM 66.2 °F 60.8 °F 83% 29.80 in 6.2 mi South 17.3 mph - N/A   Scattered Clouds
7:00 AM 66.2 °F 60.8 °F 83% 29.83 in 6.2 mi SSE 17.3 mph - N/A   Mostly Cloudy
8:00 AM 67 °F 62 °F 79% 29.83 in 6 mi South 15.0 mph - - Rain Light Rain
8:00 AM 68.0 °F 62.6 °F 83% 29.83 in 6.2 mi South 13.8 mph - N/A Rain Light Rain
9:00 AM 68.0 °F 60.8 °F 78% 29.83 in 6.2 mi SSE 20.7 mph - N/A   Mostly Cloudy
10:00 AM 69.8 °F 60.8 °F 73% 29.83 in 6.2 mi SSE 23.0 mph - N/A   Mostly Cloudy
11:00 AM 69.8 °F 62.6 °F 78% 29.83 in 6.2 mi SSE 20.7 mph - N/A   Mostly Cloudy
12:00 PM 69.8 °F 62.6 °F 78% 29.86 in 6.2 mi South 17.3 mph - N/A   Mostly Cloudy
1:00 PM 73.4 °F 64.4 °F 73% 29.83 in 6.2 mi South 21.9 mph - N/A   Scattered Clouds
2:00 PM 74 °F 64 °F 63% 29.83 in 19 mi SSE 25.3 mph - -   Scattered Clouds
2:00 PM 73.4 °F 64.4 °F 73% 29.83 in 6.2 mi SSE 25.3 mph - N/A   Partly Cloudy
3:00 PM 77.0 °F 64.4 °F 65% 29.80 in 6.2 mi South 23.0 mph - N/A   Partly Cloudy
4:00 PM 71.6 °F 60.8 °F 69% 29.80 in 6.2 mi SSE 20.7 mph - N/A   Partly Cloudy
5:00 PM 73 °F 62 °F 59% 29.79 in 19 mi SSE 25.3 mph - -   Scattered Clouds
5:00 PM 73.4 °F 62.6 °F 69% 29.77 in 6.2 mi SSE 25.3 mph - N/A   Scattered Clouds
6:00 PM 71.6 °F 62.6 °F 73% 29.80 in 6.2 mi SSE 27.6 mph - N/A   Partly Cloudy
7:00 PM 69.8 °F 60.8 °F 73% 29.80 in 6.2 mi SSE 23.0 mph - N/A   Partly Cloudy
8:00 PM 70 °F 61 °F 67% 29.80 in 12 mi SSE 24.2 mph - -   Scattered Clouds
8:00 PM 69.8 °F 62.6 °F 78% 29.80 in 6.2 mi SSE 23.0 mph - N/A   Partly Cloudy
9:00 PM 69.8 °F 60.8 °F 73% 29.80 in 6.2 mi SE 16.1 mph - N/A   Partly Cloudy
10:00 PM 68.0 °F 62.6 °F 83% 29.80 in 6.2 mi SSE 17.3 mph - N/A   Mostly Cloudy
11:00 PM 69 °F 62 °F 72% 29.82 in 12 mi SE 10.4 mph - -   Partly Cloudy
11:00 PM 68.0 °F 60.8 °F 78% 29.80 in 6.2 mi SE 9.2 mph - N/A   Partly Cloudy